Simultaneous Nadir Overpasses (SNOs) Predictions

Prediction of SNOs between LANDSAT-8 and TERRA Satellite Orbit:

Table of predicted SNOs for the next 14.0 days since TLE Epoch: 5/4/2024
Index Date (LANDSAT-8) Time (LANDSAT-8) Lat,Lon (LANDSAT-8) SZA (LANDSAT-8 ) Date (TERRA) Time (TERRA) Lat,Lon (TERRA) SZA (TERRA ) Distance(km) Time Diff (sec)
1 05/14/2024 22:00:51 81.81, -81.16 68.45 05/14/2024 22:02:02 81.82, -81.28 68.48 1.99 71
2 05/14/2024 22:50:17 -81.81, 86.76 111.52 05/14/2024 22:51:22 -81.80, 86.84 111.47 1.22 65
3 05/14/2024 23:39:44 81.81,-105.87 68.44 05/14/2024 23:40:44 81.81,-105.76 68.49 1.80 60
4 05/15/2024 00:29:10 -81.81, 62.05 111.54 05/15/2024 00:30:05 -81.81, 61.94 111.52 1.80 55
5 05/15/2024 01:18:36 81.80,-130.16 68.48 05/15/2024 01:19:26 81.80,-130.24 68.50 1.25 50
6 05/15/2024 02:08:03 -81.81, 37.34 111.55 05/15/2024 02:08:47 -81.80, 37.47 111.51 1.97 44
7 05/15/2024 02:57:29 81.80,-154.87 68.47 05/15/2024 02:58:08 81.80,-154.71 68.51 2.54 39
8 05/15/2024 03:46:56 -81.81, 12.63 111.56 05/15/2024 03:47:30 -81.81, 12.57 111.55 1.05 34
9 05/15/2024 04:36:22 81.80,-179.58 68.45 05/15/2024 04:36:51 81.80,-179.61 68.46 0.51 29
10 05/15/2024 05:25:49 -81.81, -12.08 111.58 05/15/2024 05:26:12 -81.80, -11.90 111.54 2.74 23
11 05/15/2024 06:15:15 81.80, 155.71 68.44 05/15/2024 06:15:33 81.80, 155.91 68.47 3.25 18
12 05/15/2024 07:04:41 -81.80, -36.36 111.54 05/15/2024 07:04:54 -81.80, -36.38 111.53 0.35 13
13 05/15/2024 07:54:08 81.80, 131.00 68.42 05/15/2024 07:54:16 81.81, 131.01 68.43 0.33 8
14 05/15/2024 08:43:34 -81.80, -61.07 111.55 05/15/2024 08:43:37 -81.80, -61.28 111.58 3.26 3
15 05/15/2024 09:33:00 81.80, 106.71 68.46 05/15/2024 09:32:58 81.80, 106.54 68.44 2.81 2
16 05/15/2024 10:22:27 -81.80, -85.78 111.57 05/15/2024 10:22:19 -81.80, -85.75 111.57 0.50 8
17 05/15/2024 11:11:53 81.80, 82.00 68.45 05/15/2024 11:11:40 81.79, 82.06 68.45 0.96 13
18 05/15/2024 12:01:20 -81.80,-110.50 111.58 05/15/2024 12:01:02 -81.80,-110.65 111.61 2.51 18
19 05/15/2024 12:50:46 81.80, 57.29 68.43 05/15/2024 12:50:23 81.80, 57.16 68.41 2.10 23
20 05/15/2024 13:40:13 -81.80,-135.21 111.60 05/15/2024 13:39:44 -81.80,-135.13 111.60 1.28 29
21 05/15/2024 14:29:39 81.80, 32.58 68.42 05/15/2024 14:29:05 81.79, 32.68 68.41 1.66 34
22 05/15/2024 15:19:05 -81.79,-159.49 111.55 05/15/2024 15:18:26 -81.79,-159.60 111.59 1.74 39
23 05/15/2024 16:08:31 81.79, 8.29 68.46 05/15/2024 16:07:47 81.79, 8.20 68.42 1.41 44
24 05/15/2024 16:57:58 -81.79, 175.79 111.57 05/15/2024 16:57:08 -81.79, 175.92 111.58 2.03 50
25 05/15/2024 17:47:24 81.80, -16.85 68.39 05/15/2024 17:46:29 81.79, -16.70 68.38 2.38 55
26 05/15/2024 18:36:50 -81.79, 151.08 111.58 05/15/2024 18:35:50 -81.79, 151.02 111.63 0.99 60
27 05/15/2024 19:26:16 81.79, -41.13 68.43 05/15/2024 19:25:11 81.79, -41.17 68.39 0.67 65



Historial Predications of SNOs between LANDSAT-8 and TERRA
